User: anonymous   Login
Location: Unspecified
(0.0000°N, 0.0000°E)
Time: 03:15:21
(UTC+00:00)
Language:

Tiros 10 - Orbit

View from above orbital plane
View from above orbital plane
View from above satellite
View from above satellite

Ground track
Ground track

The orbit data is extracted from the following two-line orbital elements,

1  1430U 65051A   20297.34652983 +.00000022 +00000-0 +19921-4 0  9995
2  1430 098.3104 059.1582 0056944 158.9454 201.4098 14.40288773898866
Epoch (UTC): 23 October 2020 08:19:00
Eccentricity: 0.0056944
inclination: 98.3104°
perigee height: 717 km
apogee height: 798 km
right ascension of ascending node: 59.1582°
argument of perigee: 158.9454°
revolutions per day: 14.40288773
mean anomaly at epoch: 201.4098°
orbit number at epoch: 89886

The dashed part of the orbit path shows where the satellite is in the earth's shadow,  

DLR